Location: Carite
(10.3909°N, 67.0102°W)
Time: 04:24:33
(UTC+00:00)

Cosmos 1354 Rocket - Pass Details

Date: 08 September 2024
Orbit: 761 x 781 km, 74.0° (Epoch: 09 October)

Event Time Altitude Azimuth Distance (km) Brightness Sun altitude
Rises 22:57:05 0° 348° (NNW) 3,249 7.5 -6.8°
Reaches altitude 10° 22:59:27 10° 349° (N) 2,324 6.7 -7.4°
Maximum altitude 23:04:45 84° 78° (ENE) 787 4.0 -8.7°
Drops below altitude 10° 23:10:03 10° 166° (SSE) 2,329 6.3 -10.0°
Sets 23:12:26 0° 166° (SSE) 3,256 7.0 -10.6°
